Louisville, KY

1:51 PM EDT on July 20, 2017 (GMT -0400)
Louisville International-Standiford

Weather History for KSDF - April, 2014

Change the Weather History Date:

Monday, April 7, 2014

  Actual Average Record
Temperature  
Mean Temperature 53 °F 55 °F  
Max Temperature 60 °F 66 °F 87 °F (1959)
Min Temperature 46 °F 45 °F 22 °F (1982)
Degree Days  
Heating Degree Days 12 10  
Month to date heating degree days 64 79  
Since 1 July heating degree days 4366 3858  
Cooling Degree Days 0 1  
Month to date cooling degree days 3 7  
Year to date cooling degree days 3 13  
Growing Degree Days 3 (Base 50)    
Moisture  
Dew Point 51 °F    
Average Humidity 76    
Maximum Humidity 100    
Minimum Humidity 51    
Precipitation  
Precipitation 0.93 in 0.13 in 1.21 in (2000)
Month to date precipitation 3.72 0.86  
Year to date precipitation 12.18 11.45  
Snow  
Snow 0.00 in 0.10 in 1.40 in (1916)
Month to date snowfall 0.0 0.1  
Since 1 July snowfall 25.9 12.5  
Snow Depth 0.00 in    
Sea Level Pressure  
Sea Level Pressure 29.58 in    
Wind  
Wind Speed 10 mph (NE)    
Max Wind Speed 26 mph    
Max Gust Speed 34 mph    
Visibility 5 miles    
Events Rain , Thunderstorm    
T = Trace of Precipitation, MM = Missing Value Source: NWS Daily Summary

Daily Weather History Graph

Daily Weather History Graph

Search for Another Location

Airport or City:

Trip Planner

Search our weather history database for the weather conditions in past years. The results will help you decide how hot, cold, wet, or windy it might be!

Date:

Astronomy

Apr. 07, 2014 Rise Set
Actual Time 7:18 AM EDT 8:11 PM EDT
Civil Twilight 6:52 AM EDT 8:38 PM EDT
Nautical Twilight 6:20 AM EDT 9:10 PM EDT
Astronomical Twilight 5:47 AM EDT 9:43 PM EDT
Moon 1:16 PM EDT (4/7) 2:46 AM EDT (4/7)
Length of Visible Light 13h 46m
Length of Day
12h 52m
First Quarter, 53% of the Moon is Illuminated
Apr 7
First Quarter
Apr 15
Full
Apr 22
Last Quarter
Apr 29
New
May 6
First Quarter

Hourly Weather History & Observations

Time (EDT) Temp. Windchill Dew Point Humidity Pressure Visibility Wind Dir Wind Speed Gust Speed Precip Events Conditions
12:56 AM 53.6 °F - 37.4 °F 54% 29.88 in 10.0 mi NNW 3.5 mph - N/A   Overcast
1:56 AM 55.0 °F - 37.0 °F 51% 29.85 in 10.0 mi Calm Calm - N/A   Overcast
2:56 AM 54.0 °F - 37.0 °F 53% 29.80 in 10.0 mi East 4.6 mph - N/A   Overcast
3:56 AM 53.1 °F - 43.0 °F 69% 29.77 in 10.0 mi SSE 6.9 mph - 0.00 in Rain Light Rain
4:56 AM 53.1 °F - 46.0 °F 77% 29.73 in 10.0 mi SE 4.6 mph - 0.00 in   Overcast
5:38 AM 53.1 °F - 46.9 °F 80% 29.74 in 10.0 mi ESE 3.5 mph - N/A   Overcast
5:56 AM 53.1 °F - 48.0 °F 83% 29.75 in 8.0 mi Calm Calm - 0.00 in   Overcast
6:14 AM 53.1 °F - 48.9 °F 86% 29.74 in 9.0 mi NNE 3.5 mph - N/A   Overcast
6:25 AM 53.1 °F - 50.0 °F 89% 29.73 in 10.0 mi NNE 4.6 mph - N/A   Overcast
6:56 AM 52.0 °F - 51.1 °F 97% 29.72 in 4.0 mi North 5.8 mph - 0.00 in Rain Light Rain
7:28 AM 52.0 °F - 51.1 °F 97% 29.68 in 2.5 mi NE 8.1 mph - 0.01 in Rain Light Rain
7:35 AM 52.0 °F - 51.1 °F 97% 29.68 in 4.0 mi ENE 8.1 mph - 0.01 in Rain Light Rain
7:46 AM 52.0 °F - 51.1 °F 97% 29.67 in 2.0 mi ENE 10.4 mph - 0.02 in Rain Light Rain
7:51 AM 51.8 °F - 51.8 °F 100% 29.67 in 1.8 mi East 8.1 mph - 0.02 in Rain Light Rain
7:56 AM 52.0 °F - 51.1 °F 97% 29.67 in 1.8 mi ENE 8.1 mph - 0.02 in Rain Light Rain
8:11 AM 52.0 °F - 51.1 °F 97% 29.68 in 1.2 mi East 6.9 mph - 0.01 in Rain Light Rain
8:56 AM 52.0 °F - 51.1 °F 97% 29.68 in 1.0 mi East 5.8 mph - 0.07 in Rain Light Rain
9:36 AM 53.1 °F - 52.0 °F 96% 29.64 in 2.0 mi East 5.8 mph - 0.04 in Rain Light Rain
9:45 AM 53.1 °F - 52.0 °F 96% 29.63 in 1.8 mi ENE 8.1 mph - 0.04 in Rain Light Rain
9:54 AM 51.8 °F - 51.8 °F 100% 29.61 in 2.0 mi ENE 6.9 mph - 0.06 in Rain Rain
9:56 AM 52.0 °F - 52.0 °F 100% 29.60 in 2.0 mi North - - 0.06 in Rain Light Rain
9:58 AM 53.1 °F - 52.0 °F 96% 29.60 in 1.5 mi North - - 0.00 in Rain Light Rain
10:20 AM 53.1 °F - 52.0 °F 96% 29.59 in 2.0 mi East 8.1 mph - 0.00 in Rain Light Rain
10:56 AM 54.0 °F - 53.1 °F 97% 29.55 in 2.5 mi NE 8.1 mph - 0.01 in Rain Light Rain
10:59 AM 54.0 °F - 53.1 °F 97% 29.55 in 3.0 mi NE 6.9 mph - 0.00 in Rain Light Rain
11:20 AM 54.0 °F - 53.1 °F 97% 29.58 in 8.0 mi North 4.6 mph - 0.01 in Rain Light Rain
11:22 AM 54.0 °F - 53.1 °F 97% 29.59 in 2.5 mi North 4.6 mph - 0.01 in Rain , Thunderstorm Light Thunderstorms and Rain
11:30 AM 53.6 °F - 53.6 °F 100% 29.58 in 1.5 mi NNW 9.2 mph - N/A Rain , Thunderstorm Thunderstorms and Rain
11:31 AM 53.6 °F - 53.6 °F 100% 29.58 in 1.5 mi North 10.4 mph - N/A Rain , Thunderstorm Thunderstorms and Rain
11:35 AM 54.0 °F - 53.1 °F 97% 29.58 in 2.5 mi North 5.8 mph - 0.14 in Rain , Thunderstorm Light Thunderstorms and Rain
11:52 AM 53.6 °F - 53.6 °F 100% 29.49 in 2.5 mi ENE 12.7 mph - 0.26 in Rain , Thunderstorm Thunderstorms and Rain
11:56 AM 53.6 °F - 53.6 °F 100% 29.48 in 2.5 mi East 13.8 mph - N/A Rain Light Rain
12:07 PM 54.0 °F - 53.1 °F 97% 29.53 in 1.5 mi ESE 5.8 mph - 0.00 in Rain , Thunderstorm Thunderstorms and Rain
12:30 PM 54.0 °F - 53.1 °F 97% 29.52 in 1.2 mi North 5.8 mph - 0.33 in Rain Rain
12:56 PM 54.0 °F - 53.1 °F 97% 29.51 in 1.2 mi NNE 5.8 mph - 0.44 in Rain Rain
1:11 PM 55.0 °F - 54.0 °F 96% 29.50 in 2.0 mi NE 8.1 mph - 0.02 in Rain Light Rain
1:23 PM 54.0 °F - 54.0 °F 100% 29.48 in 1.8 mi NE 9.2 mph - 0.02 in Rain Light Rain
1:56 PM 55.0 °F - 54.0 °F 96% 29.47 in 1.5 mi NE 9.2 mph - 0.04 in Rain Light Rain
2:05 PM 55.0 °F - 54.0 °F 96% 29.46 in 2.0 mi ENE 11.5 mph - 0.00 in Rain Light Rain
2:25 PM 55.0 °F - 54.0 °F 96% 29.45 in 2.5 mi East 8.1 mph - 0.01 in Rain Light Rain
2:51 PM 55.4 °F - 53.6 °F 94% 29.44 in 3.0 mi East 6.9 mph - 0.01 in Rain Light Rain
2:56 PM 55.9 °F - 54.0 °F 93% 29.43 in 4.0 mi East 6.9 mph - 0.01 in Rain Light Rain
3:06 PM 55.9 °F - 54.0 °F 93% 29.43 in 5.0 mi East 4.6 mph - 0.00 in   Light Drizzle
3:24 PM 55.9 °F - 55.0 °F 97% 29.42 in 8.0 mi East 3.5 mph - 0.00 in   Light Drizzle
3:56 PM 57.0 °F - 55.9 °F 96% 29.40 in 8.0 mi Calm Calm - 0.00 in   Overcast
4:23 PM 57.0 °F - 55.9 °F 96% 29.40 in 7.0 mi WNW 6.9 mph - 0.00 in Rain Light Rain
4:32 PM 57.0 °F - 55.9 °F 96% 29.40 in 7.0 mi WNW 8.1 mph - 0.00 in   Overcast
4:56 PM 59.0 °F - 57.0 °F 93% 29.39 in 8.0 mi West 8.1 mph - 0.00 in   Overcast
4:58 PM 59.0 °F - 57.0 °F 93% 29.39 in 8.0 mi West 11.5 mph - N/A   Overcast
5:56 PM 59.0 °F - 55.0 °F 87% 29.39 in 5.0 mi WSW 21.9 mph 29.9 mph 0.00 in Rain Light Rain
6:07 PM 57.9 °F - 55.0 °F 90% 29.40 in 2.5 mi WSW 24.2 mph 32.2 mph 0.00 in Rain Light Rain
6:20 PM 57.9 °F - 55.0 °F 90% 29.42 in 4.0 mi WSW 17.3 mph 24.2 mph 0.01 in Rain Light Rain
6:56 PM 55.0 °F - - N/A% 29.44 in 7.0 mi WSW 17.3 mph - 0.01 in   Overcast
7:04 PM 55.0 °F - 52.0 °F 89% 29.45 in 10.0 mi WSW 19.6 mph - N/A   Overcast
7:49 PM 54.0 °F - 48.9 °F 83% 29.49 in 10.0 mi West 19.6 mph 31.1 mph N/A   Overcast
7:56 PM 54.0 °F - 48.9 °F 83% 29.49 in 10.0 mi WSW 18.4 mph 25.3 mph N/A   Overcast
8:56 PM 54.0 °F - 48.0 °F 80% 29.55 in 10.0 mi WSW 19.6 mph 31.1 mph 0.00 in   Overcast
9:56 PM 46.9 °F - 44.1 °F 90% 29.62 in 7.0 mi West 16.1 mph - N/A   Overcast
10:56 PM 46.9 °F - 43.0 °F 86% 29.65 in 4.0 mi West 13.8 mph - 0.01 in Rain Light Rain
11:22 PM 46.0 °F 39.0 °F 44.1 °F 93% 29.66 in 10.0 mi West 17.3 mph 23.0 mph 0.00 in   Overcast
11:56 PM 46.0 °F 39.3 °F 43.0 °F 89% 29.68 in 10.0 mi West 16.1 mph - 0.00 in   Light Drizzle